Date/time,"Subsurface drainage flow (calculated from equations 5 and 6), in cubic feet per day","Subsurface drainage flow (calculated from equations 5 and 6), in cubic meters per day"
2017-04-12,3628.97,102.76
2017-04-13,3439.37,97.39
2017-04-14,3896.03,110.32
2017-04-15,6356.56,180.00
2017-04-16,5931.74,167.97
2017-04-17,4227.06,119.70
2017-04-18,3516.11,99.57
2017-04-19,2994.14,84.78
2017-04-20,14861.79,420.84
2017-04-21,6302.50,178.47
2017-04-22,4657.55,131.89
2017-04-23,3841.00,108.76
2017-04-24,3386.04,95.88
2017-04-25,2903.94,82.23
2017-04-26,2629.93,74.47
2017-04-27,2431.38,68.85
2017-04-28,2115.81,59.91
2017-04-29,1668.74,47.25
2017-04-30,1691.16,47.89
2017-05-01,3347.48,94.79
2017-05-02,4132.99,117.03
2017-05-03,3442.68,97.49
2017-05-04,2840.17,80.42
2017-05-05,2507.45,71.00
2017-05-06,2142.98,60.68
2017-05-07,1852.49,52.46
2017-05-08,1784.94,50.54
2017-05-09,1756.97,49.75
2017-05-10,1653.48,46.82
2017-05-11,1429.33,40.47
2017-05-12,1485.05,42.05
2017-05-13,1728.31,48.94
2017-05-14,1607.35,45.52
2017-05-15,1499.90,42.47
2017-05-16,1614.92,45.73
2017-05-17,2109.11,59.72
2017-05-18,5315.74,150.53
2017-05-19,3492.58,98.90
2017-05-20,4142.63,117.31
2017-05-21,7156.27,202.64
2017-05-22,4218.21,119.45
2017-05-23,3295.90,93.33
2017-05-24,2867.05,81.19
2017-05-25,2430.49,68.82
2017-05-26,2052.46,58.12
2017-05-27,1804.68,51.10
2017-05-28,1764.43,49.96
2017-05-29,1501.86,42.53
2017-05-30,1302.96,36.90
2017-05-31,1222.53,34.62
2017-06-01,1191.18,33.73
2017-06-02,1256.29,35.57
2017-06-03,1332.45,37.73
2017-06-04,1194.33,33.82
2017-06-05,1016.31,28.78
2017-06-06,890.40,25.21
2017-06-07,918.03,26.00
2017-06-08,998.77,28.28
2017-06-09,938.90,26.59
2017-06-10,1031.38,29.21
2017-06-11,954.72,27.03
2017-06-12,911.44,25.81
2017-06-13,1854.84,52.52
2017-06-14,1493.37,42.29
2017-06-15,1245.48,35.27
2017-06-16,1011.50,28.64
2017-06-17,854.54,24.20
2017-06-18,685.23,19.40
2017-06-19,558.68,15.82
2017-06-20,526.60,14.91
2017-06-21,422.67,11.97
2017-06-22,485.33,13.74
2017-06-23,645.97,18.29
2017-06-24,431.31,12.21
2017-06-25,324.62,9.19
2017-06-26,292.34,8.28
2017-06-27,277.28,7.85
2017-06-28,1077.81,30.52
2017-06-29,3436.01,97.30
2017-06-30,6244.98,176.84
2017-07-01,2992.55,84.74
2017-07-02,2006.19,56.81
2017-07-03,1315.09,37.24
2017-07-04,874.13,24.75
2017-07-05,593.67,16.81
2017-07-06,291.96,8.27
2017-07-07,31.31,0.89
2017-07-08,0.00,0.00
2017-07-09,0.00,0.00
2017-07-10,11673.73,330.56
2017-07-11,3443.38,97.51
2017-07-12,2177.80,61.67
2017-07-13,1138.55,32.24
2017-07-14,684.64,19.39
2017-07-15,478.13,13.54
2017-07-16,179.14,5.07
2017-07-17,19.85,0.56
2017-07-18,0.00,0.00
2017-07-19,55.26,1.56
2017-07-20,983.72,27.86
2017-07-21,8322.70,235.67
2017-07-22,15321.35,433.85
2017-07-23,3956.23,112.03
2017-07-24,2133.28,60.41
2017-07-25,1598.49,45.26
2017-07-26,1896.68,53.71
2017-07-27,1964.32,55.62
2017-07-28,1400.03,39.64
2017-07-29,796.14,22.54
2017-07-30,460.15,13.03
2017-07-31,239.83,6.79
2017-08-01,87.03,2.46
2017-08-02,0.00,0.00
2017-08-03,199.46,5.65
2017-08-04,414.62,11.74
2017-08-05,102.90,2.91
2017-08-06,49.60,1.40
2017-08-07,16.47,0.47
2017-08-08,0.00,0.00
2017-08-09,0.00,0.00
2017-08-10,0.00,0.00
2017-08-11,0.00,0.00
2017-08-12,0.00,0.00
2017-08-13,0.00,0.00
2017-08-14,0.00,0.00
2017-08-15,0.00,0.00
2017-08-16,0.00,0.00
2017-08-17,1198.23,33.93
2017-08-18,755.99,21.41
2017-08-19,528.40,14.96
2017-08-20,226.74,6.42
2017-08-21,325.46,9.22
2017-08-22,898.47,25.44
2017-08-23,290.40,8.22
2017-08-24,202.09,5.72
2017-08-25,35.91,1.02
2017-08-26,0.00,0.00
2017-08-27,0.00,0.00
2017-08-28,0.00,0.00
2017-08-29,0.00,0.00
2017-08-30,0.00,0.00
2017-08-31,0.00,0.00
2017-09-01,0.00,0.00
2017-09-02,0.00,0.00
2017-09-03,0.00,0.00
2017-09-04,0.00,0.00
2017-09-05,0.00,0.00
2017-09-06,0.00,0.00
2017-09-07,0.00,0.00
2017-09-08,0.00,0.00
2017-09-09,0.00,0.00
2017-09-10,0.00,0.00
2017-09-11,0.00,0.00
2017-09-12,0.00,0.00
2017-09-13,0.00,0.00
2017-09-14,0.00,0.00
2017-09-15,0.00,0.00
2017-09-16,0.00,0.00
2017-09-17,0.00,0.00
2017-09-18,0.00,0.00
2017-09-19,4529.60,128.26
2017-09-20,3242.30,91.81
2017-09-21,2265.83,64.16
2017-09-22,1824.37,51.66
2017-09-23,1129.32,31.98
2017-09-24,422.73,11.97
2017-09-25,14.55,0.41
2017-09-26,2449.33,69.36
2017-09-27,2309.85,65.41
2017-09-28,2135.95,60.48
2017-09-29,1690.92,47.88
2017-09-30,1527.96,43.27
2017-10-01,1606.47,45.49
2017-10-02,1873.12,53.04
2017-10-03,2233.32,63.24
2017-10-04,2752.41,77.94
2017-10-05,3376.86,95.62
2017-10-06,8083.64,228.90
2017-10-07,22562.54,638.90
2017-10-08,22643.75,641.20
2017-10-09,12157.48,344.26
2017-10-10,10193.83,288.66
2017-10-11,15517.53,439.41
2017-10-12,11298.90,319.95
2017-10-13,9397.19,266.10
2017-10-14,11543.13,326.87
2017-10-15,8660.35,245.23
2017-10-16,8250.67,233.63
2017-10-17,6870.43,194.55
2017-10-18,6374.36,180.50
2017-10-19,1939.12,54.91
2017-10-20,0.00,0.00
2017-10-21,0.00,0.00
2017-10-22,0.00,0.00
2017-10-23,0.00,0.00
2017-10-24,0.00,0.00
2017-10-25,0.00,0.00
2017-10-26,0.00,0.00
2017-10-27,0.00,0.00
2017-10-28,0.00,0.00
2017-10-29,0.00,0.00
2017-10-30,0.00,0.00
2017-10-31,0.00,0.00
2017-11-01,0.00,0.00
2017-11-02,470.53,13.32
2017-11-03,1522.43,43.11
2017-11-04,1653.80,46.83
2017-11-05,1627.31,46.08
2017-11-06,1937.37,54.86
2017-11-07,1675.07,47.43
2017-11-08,1896.82,53.71
2017-11-09,1480.34,41.92
2017-11-10,1480.09,41.91
2017-11-11,895.62,25.36
2017-11-12,633.84,17.95
2017-11-13,860.84,24.38
2017-11-14,640.18,18.13
2017-11-15,592.96,16.79
2017-11-16,712.43,20.17
2017-11-17,715.11,20.25
2017-11-18,565.04,16.00
2017-11-19,772.05,21.86
2017-11-20,723.73,20.49
2017-11-21,616.77,17.46
2017-11-22,801.32,22.69
2017-11-23,668.92,18.94
2017-11-24,499.11,14.13
2017-11-25,332.49,9.42
2017-11-26,583.61,16.53
2017-11-27,530.75,15.03
2017-11-28,374.80,10.61
2017-11-29,478.22,13.54
2017-11-30,445.05,12.60
2017-12-01,621.08,17.59
2017-12-02,498.21,14.11
2017-12-03,521.31,14.76
2017-12-04,390.25,11.05
2017-12-05,576.67,16.33
2017-12-06,695.73,19.70
2017-12-07,728.46,20.63
2017-12-08,706.23,20.00
2017-12-09,602.42,17.06
2017-12-10,521.23,14.76
2017-12-11,386.41,10.94
2017-12-12,587.28,16.63
2017-12-13,524.69,14.86
2017-12-14,504.65,14.29
2017-12-15,370.44,10.49
2017-12-16,239.65,6.79
2017-12-17,211.97,6.00
2017-12-18,216.82,6.14
2017-12-19,164.14,4.65
2017-12-20,267.75,7.58
2017-12-21,301.53,8.54
2017-12-22,351.40,9.95
2017-12-23,472.66,13.38
2017-12-24,487.57,13.81
2017-12-25,682.45,19.32
2017-12-26,932.73,26.41
2017-12-27,849.73,24.06
2017-12-28,402.57,11.40
2017-12-29,221.48,6.27
2017-12-30,375.18,10.62
2017-12-31,138.49,3.92
2018-01-01,6.48,0.18
2018-01-02,0.00,0.00
2018-01-03,0.00,0.00
2018-01-04,0.00,0.00
2018-01-05,0.00,0.00
2018-01-06,0.00,0.00
2018-01-07,0.00,0.00
2018-01-08,0.00,0.00
2018-01-09,0.00,0.00
2018-01-10,0.00,0.00
2018-01-11,0.00,0.00
2018-01-12,0.00,0.00
2018-01-13,0.00,0.00
2018-01-14,0.00,0.00
2018-01-15,0.00,0.00
2018-01-16,0.00,0.00
2018-01-17,0.00,0.00
2018-01-18,0.00,0.00
2018-01-19,0.00,0.00
2018-01-20,0.00,0.00
2018-01-21,0.00,0.00
2018-01-22,8734.04,247.32
2018-01-23,23286.53,659.40
2018-01-24,10835.62,306.83
2018-01-25,463.32,13.12
2018-01-26,743.16,21.04
2018-01-27,6668.44,188.83
2018-01-28,686.02,19.43
2018-01-29,847.22,23.99
2018-01-30,1203.75,34.09
2018-01-31,516.02,14.61
2018-02-01,1065.60,30.17
2018-02-02,1125.14,31.86
2018-02-03,141.86,4.02
2018-02-04,0.00,0.00
2018-02-05,0.00,0.00
2018-02-06,0.00,0.00
2018-02-07,0.00,0.00
2018-02-08,0.00,0.00
2018-02-09,0.00,0.00
2018-02-10,0.00,0.00
2018-02-11,0.00,0.00
2018-02-12,0.00,0.00
2018-02-13,0.00,0.00
2018-02-14,0.00,0.00
2018-02-15,0.00,0.00
2018-02-16,0.00,0.00
2018-02-17,0.00,0.00
2018-02-18,0.00,0.00
2018-02-19,0.00,0.00
2018-02-20,0.00,0.00
2018-02-21,0.00,0.00
2018-02-22,0.00,0.00
2018-02-23,0.00,0.00
2018-02-24,0.00,0.00
2018-02-25,0.00,0.00
2018-02-26,0.00,0.00
2018-02-27,1564.92,44.31
2018-02-28,23286.53,659.40
2018-03-01,21946.79,621.46
2018-03-02,9727.41,275.45
2018-03-03,5173.51,146.50
2018-03-04,1351.83,38.28
2018-03-05,1338.75,37.91
2018-03-06,911.40,25.81
2018-03-07,835.00,23.64
2018-03-08,1022.11,28.94
2018-03-09,886.32,25.10
2018-03-10,752.97,21.32
2018-03-11,492.06,13.93
2018-03-12,701.07,19.85
2018-03-13,909.12,25.74
2018-03-14,999.54,28.30
2018-03-15,876.27,24.81
2018-03-16,1253.61,35.50
2018-03-17,878.72,24.88
2018-03-18,1275.34,36.11
2018-03-19,1650.08,46.73
2018-03-20,1646.23,46.62
2018-03-21,1216.25,34.44
2018-03-22,1019.30,28.86
2018-03-23,1145.84,32.45
2018-03-24,1038.85,29.42
2018-03-25,932.01,26.39
2018-03-26,980.81,27.77
2018-03-27,908.66,25.73
2018-03-28,1043.72,29.55
2018-03-29,952.06,26.96
2018-03-30,922.57,26.12
2018-03-31,1190.73,33.72
2018-04-01,1525.74,43.20
2018-04-02,1397.64,39.58
2018-04-03,1244.16,35.23
2018-04-04,1456.58,41.25
2018-04-05,1374.98,38.94
2018-04-06,1405.68,39.80
2018-04-07,1627.58,46.09
2018-04-08,1598.33,45.26
2018-04-09,1167.11,33.05
2018-04-10,1190.33,33.71
2018-04-11,1270.02,35.96
2018-04-12,1376.57,38.98
2018-04-13,4540.17,128.56
2018-04-14,19366.20,548.39
2018-04-15,11344.80,321.25
2018-04-16,3881.81,109.92
2018-04-17,3882.98,109.95
2018-04-18,5690.79,161.15
2018-04-19,3473.92,98.37
2018-04-20,4093.71,115.92
2018-04-21,8402.98,237.95
2018-04-22,10510.78,297.63
2018-04-23,7105.97,201.22
2018-04-24,5279.63,149.50
2018-04-25,4118.78,116.63
2018-04-26,3935.97,111.45
2018-04-27,3509.46,99.38
2018-04-28,2913.18,82.49
2018-04-29,2798.91,79.26
2018-04-30,2535.78,71.81
2018-05-01,2352.31,66.61
2018-05-02,16302.28,461.63
2018-05-03,8808.07,249.42
2018-05-04,21243.70,601.55
2018-05-05,11617.33,328.97
2018-05-06,6380.46,180.67
2018-05-07,4786.42,135.54
2018-05-08,3794.40,107.45
2018-05-09,8077.98,228.74
2018-05-10,6413.54,181.61
2018-05-11,10161.14,287.73
2018-05-12,10060.19,284.87
2018-05-13,8443.82,239.10
2018-05-14,6241.14,176.73
2018-05-15,5223.30,147.91
2018-05-16,4571.94,129.46
2018-05-17,4009.27,113.53
2018-05-18,3439.48,97.40
2018-05-19,3400.07,96.28
2018-05-20,2813.86,79.68
2018-05-21,2695.30,76.32
2018-05-22,2724.88,77.16
2018-05-23,2740.25,77.60
2018-05-24,2987.63,84.60
2018-05-25,2976.63,84.29
2018-05-26,3069.42,86.92
2018-05-27,3203.04,90.70
2018-05-28,3256.67,92.22
2018-05-29,3201.69,90.66
2018-05-30,2795.63,79.16
2018-05-31,3662.96,103.72
2018-06-01,3666.96,103.84
2018-06-02,3117.47,88.28
2018-06-03,2681.02,75.92
2018-06-04,2637.98,74.70
2018-06-05,2596.66,73.53
2018-06-06,2423.38,68.62
2018-06-07,2138.02,60.54
2018-06-08,9497.87,268.95
2018-06-09,10468.38,296.43
2018-06-10,23286.53,659.40
2018-06-11,19601.78,555.06
2018-06-12,10341.76,292.85
2018-06-13,6970.61,197.39
2018-06-14,5443.98,154.16
2018-06-15,4983.32,141.11
2018-06-16,4322.37,122.40
2018-06-17,3932.12,111.35
2018-06-18,3629.26,102.77
2018-06-19,3925.78,111.17
2018-06-20,4277.67,121.13
2018-06-21,9099.80,257.68
2018-06-22,10676.99,302.34
2018-06-23,6712.61,190.08
2018-06-24,5190.68,146.98
2018-06-25,4137.70,117.17
2018-06-26,3529.55,99.95
2018-06-27,3211.90,90.95
2018-06-28,2972.25,84.16
2018-06-29,2878.73,81.52
2018-06-30,2785.48,78.88
2018-07-01,11518.98,326.18
2018-07-02,7214.86,204.30
2018-07-03,5125.60,145.14
2018-07-04,4090.10,115.82
2018-07-05,3911.75,110.77
2018-07-06,3149.09,89.17
2018-07-07,2646.21,74.93
2018-07-08,2145.11,60.74
2018-07-09,1766.08,50.01
2018-07-10,1289.81,36.52
2018-07-11,1030.10,29.17
2018-07-12,657.09,18.61
2018-07-13,398.74,11.29
2018-07-14,875.46,24.79
2018-07-15,1101.86,31.20
2018-07-16,676.32,19.15
2018-07-17,75.46,2.14
2018-07-18,0.00,0.00
2018-07-19,0.00,0.00
2018-07-20,0.21,0.01
2018-07-21,8.73,0.25
2018-07-22,0.00,0.00
2018-07-23,0.00,0.00
2018-07-24,0.00,0.00
2018-07-25,0.00,0.00
2018-07-26,0.00,0.00
2018-07-27,0.00,0.00
2018-07-28,0.00,0.00
2018-07-29,0.00,0.00
2018-07-30,0.00,0.00
2018-07-31,0.00,0.00
2018-08-01,0.00,0.00
2018-08-02,0.00,0.00
2018-08-03,0.00,0.00
2018-08-04,0.00,0.00
2018-08-05,0.00,0.00
2018-08-06,0.00,0.00
2018-08-07,0.00,0.00
2018-08-08,0.00,0.00
2018-08-09,0.00,0.00
2018-08-10,0.00,0.00
2018-08-11,0.00,0.00
2018-08-12,0.00,0.00
2018-08-13,0.00,0.00
2018-08-14,0.00,0.00
2018-08-15,0.00,0.00
2018-08-16,0.00,0.00
2018-08-17,0.00,0.00
2018-08-18,0.00,0.00
2018-08-19,0.00,0.00
2018-08-20,0.00,0.00
2018-08-21,0.00,0.00
2018-08-22,0.00,0.00
2018-08-23,0.00,0.00
2018-08-24,0.00,0.00
2018-08-25,0.00,0.00
2018-08-26,0.00,0.00
2018-08-27,0.00,0.00
2018-08-28,0.00,0.00
2018-08-29,0.00,0.00
2018-08-30,0.00,0.00
2018-08-31,0.00,0.00
2018-09-01,0.00,0.00
2018-09-02,0.00,0.00
2018-09-03,0.00,0.00
2018-09-04,0.00,0.00
2018-09-05,4828.48,136.73
2018-09-06,2084.78,59.03
2018-09-07,880.92,24.94
2018-09-08,487.87,13.81
2018-09-09,226.48,6.41
2018-09-10,81.35,2.30
2018-09-11,7.64,0.22
2018-09-12,0.00,0.00
2018-09-13,0.00,0.00
2018-09-14,0.00,0.00
2018-09-15,0.00,0.00
2018-09-16,0.00,0.00
2018-09-17,0.00,0.00
2018-09-18,3372.65,95.50
2018-09-19,4094.60,115.95
2018-09-20,17345.59,491.17
2018-09-21,18492.38,523.65
2018-09-22,7028.00,199.01
2018-09-23,4616.28,130.72
2018-09-24,3500.80,99.13
2018-09-25,2768.21,78.39
,,
